ONEWEB-0224 (48794 NORAD) Tracking and Keplerian Element Data

This shows tracking and keplerian element data for the satellite.

Feedback or suggestion? Click here.




ElementValue
Catalog48794
NameONEWEB-0224
Epoch Orbit351
Epoch Day214.91667824
Epoch Year2021
RAAN254.7076
Inclination87.5186
Eccentricity0.0009471
Argument of Perigee43.7229
Mean Anonmoly208.5116
Mean Motion14.20969793
Decay Rate-0.01352792
L11 48794U 21045AD 21214.91667824 -.01352792 00000-0 -67154+0 0 9990
L22 48794 87.5186 254.7076 0009471 43.7229 208.5116 14.20969793 3510

Live tracking and technical data element details for ONEWEB-0224 (NORAD 48794). ONEWEB-0224 can be tracked NOW for your location showing map with azimuth and elevation plus other details from your city location.

Track the satellite on the map from your city or location and see movement details for azimuth, elevation, latitude, longitude, range, height, and movement on the map or in text.







IsCatalogInMostPopularTable: catalog: 48794, numindb: 18
Update: records affected: 1



GetName: 48794 ONEWEB-0224

Hit Count: updated at: Tue, 03 Aug 2021 21:25:56 GMT